AE7VB Weather Reports


time (UTC)temp
F
wind
direction
speed
knots
gust
knots
rain 1hr
in
rain 24hr
in
rain mn
in
humidity
%
barometer
mb
20260902024551 69 141 2.6 17.4 0.00 0.00 0.00 50 1011.3
20260902023038 69 148 3.5 13.9 0.00 0.00 0.00 51 1011.5
20260902021509 70 135 0.0 1.7 0.00 0.00 0.00 49 1011.7
20260902020101 70 138 0.9 11.3 0.00 0.00 0.00 47 1012.0
20260902014552 71 106 0.0 12.2 0.00 0.00 0.00 46 1012.0
20260902013045 72 78 0.9 7.8 0.00 0.00 0.00 44 1011.9
20260902011545 73 31 0.9 8.7 0.00 0.00 0.00 41 1012.0
20260902010036 74 67 0.0 2.6 0.00 0.00 0.00 40 1012.0
20260902004519 74 92 0.0 7.8 0.00 0.00 0.00 39 1011.9
20260902003059 75 93 0.9 9.6 0.00 0.00 0.00 39 1011.9
20260902001555 73 111 0.9 8.7 0.00 0.00 0.00 41 1012.2
20260902000036 72 97 0.0 9.6 0.00 0.00 0.00 41 1012.4
20260901234513 73 71 2.6 13.0 0.00 0.00 0.00 40 1012.7
20260901233002 73 63 0.9 2.6 0.00 0.00 0.00 41 1012.9
20260901231556 74 60 0.9 10.4 0.00 0.00 0.00 38 1013.0
20260901230053 75 79 0.0 9.6 0.00 0.00 0.00 37 1013.0
20260901224540 76 79 0.0 7.8 0.00 0.00 0.00 36 1013.0
20260901223016 76 290 0.9 6.1 0.00 0.00 0.00 34 1013.0
20260901221604 75 254 0.0 7.0 0.00 0.00 0.00 35 1013.1
20260901221501 75 244 0.0 7.0 0.00 0.00 0.00 35 1013.2
20260901220109 75 275 0.0 10.4 0.00 0.00 0.00 39 1013.4
20260901214533 75 265 1.7 8.7 0.00 0.00 0.00 38 1013.5
20260901213032 75 293 0.9 11.3 0.00 0.00 0.00 37 1013.8
20260901210047 75 296 1.7 13.9 0.00 0.00 0.00 35 1013.9
20260901204544 75 250 0.9 7.8 0.00 0.00 0.00 35 1013.9
20260901203037 77 211 0.9 14.8 0.00 0.00 0.00 29 1014.1
20260901201513 78 248 0.9 15.6 0.00 0.00 0.00 28 1014.0
20260901200058 79 238 0.9 7.8 0.00 0.00 0.00 27 1013.7
20260901194559 80 225 2.6 13.9 0.00 0.00 0.00 24 1013.8
20260901193038 82 223 0.9 13.9 0.00 0.00 0.00 22 1013.6
20260901191531 82 248 1.7 12.2 0.00 0.00 0.00 23 1013.7
20260901190014 85 243 3.5 10.4 0.00 0.00 0.00 21 1013.4
20260901184509 84 225 1.7 13.0 0.00 0.00 0.00 22 1013.8
20260901183043 79 234 2.6 12.2 0.00 0.00 0.00 24 1013.7
20260901181539 79 211 2.6 10.4 0.00 0.00 0.00 23 1013.6
20260901180006 77 209 0.0 4.3 0.00 0.00 0.00 24 1013.6
20260901174552 75 145 0.0 1.7 0.00 0.00 0.00 28 1013.6
20260901173046 75 347 0.0 0.9 0.00 0.00 0.00 27 1013.4
20260901171528 74 49 0.0 0.0 0.00 0.00 0.00 28 1013.4
20260901170015 72 48 0.0 0.0 0.00 0.00 0.00 29 1013.3
20260901164504 72 28 0.0 1.7 0.00 0.00 0.00 30 1013.2
20260901163043 70 302 0.0 1.7 0.00 0.00 0.00 31 1013.2
20260901161533 70 288 0.0 0.9 0.00 0.00 0.00 33 1013.3
20260901160057 68 286 0.0 0.0 0.00 0.00 0.00 35 1013.5
20260901154552 66 290 0.0 0.0 0.00 0.00 0.00 37 1013.5
20260901153025 64 287 0.0 0.0 0.00 0.00 0.00 40 1013.6
20260901151512 63 263 0.0 0.0 0.00 0.00 0.00 41 1013.6
20260901150104 62 271 0.0 3.5 0.00 0.00 0.00 42 1013.7
20260901144545 61 243 0.9 3.5 0.00 0.00 0.00 42 1013.7
20260901143038 60 274 0.0 0.0 0.00 0.00 0.00 43 1013.8
20260901141520 60 275 0.0 0.0 0.00 0.00 0.00 44 1013.9
20260901140009 60 290 0.0 3.5 0.00 0.00 0.00 44 1013.9
20260901134550 58 88 0.0 5.2 0.00 0.00 0.00 46 1013.4
20260901133040 56 219 1.7 5.2 0.00 0.00 0.00 48 1014.3
20260901131522 53 229 0.0 0.0 0.00 0.00 0.00 53 1014.1
20260901130016 52 223 0.0 0.9 0.00 0.00 0.00 55 1014.2
20260901124518 52 223 0.0 0.0 0.00 0.00 0.00 53 1014.2
20260901123103 53 222 0.0 0.0 0.00 0.00 0.00 52 1014.2
20260901121559 55 223 0.0 0.0 0.00 0.00 0.00 51 1014.4
20260901120023 55 90 0.0 0.0 0.00 0.00 0.00 49 1014.6
20260901114535 55 92 0.0 0.0 0.00 0.00 0.00 49 1014.7
20260901113017 55 91 0.0 0.0 0.00 0.00 0.00 50 1014.7
20260901111503 54 90 0.0 3.5 0.00 0.00 0.00 52 1014.7
20260901110058 54 128 0.0 0.0 0.00 0.00 0.00 52 1014.6
20260901104553 54 158 0.0 0.0 0.00 0.00 0.00 54 1014.7
20260901103027 54 163 0.0 2.6 0.00 0.00 0.00 54 1014.6
20260901101518 54 179 0.0 1.7 0.00 0.00 0.00 52 1014.7
20260901100055 55 226 0.0 0.0 0.00 0.00 0.00 50 1014.8
20260901094542 56 225 0.0 0.0 0.00 0.00 0.00 49 1014.7
20260901093023 56 225 0.0 1.7 0.00 0.00 0.00 49 1014.7
20260901091508 56 226 0.0 0.0 0.00 0.00 0.00 49 1014.8
20260901090054 57 227 0.0 1.7 0.00 0.00 0.00 48 1014.9
20260901084558 57 229 0.0 2.6 0.00 0.00 0.00 47 1015.0
20260901083033 57 226 0.0 0.0 0.00 0.00 0.00 48 1015.0
20260901081523 56 225 0.0 1.7 0.00 0.00 0.00 48 1015.1
20260901080010 57 229 0.0 0.0 0.00 0.00 0.00 47 1015.3
20260901074601 57 150 0.0 0.0 0.00 0.00 0.00 46 1015.1
20260901073042 58 150 0.0 0.0 0.00 0.00 0.00 46 1015.3
20260901071537 58 150 0.0 0.0 0.00 0.00 0.00 45 1015.4
20260901070012 59 150 0.0 0.9 0.00 0.00 0.00 44 1015.4
20260901064502 59 150 0.0 0.0 0.00 0.00 0.00 44 1015.5
20260901063109 59 150 0.0 0.9 0.00 0.00 0.00 42 1015.6
20260901061548 60 150 0.0 0.0 0.00 0.00 0.00 42 1015.8
20260901060037 60 150 0.0 0.0 0.00 0.00 0.00 40 1015.8
20260901054525 60 130 0.0 0.0 0.00 0.00 0.00 40 1016.0
20260901053010 61 130 0.0 0.0 0.00 0.00 0.00 39 1016.1
20260901051615 61 131 0.0 0.0 0.00 0.00 0.00 38 1016.4
20260901050046 62 130 0.0 0.0 0.00 0.00 0.00 38 1016.5
20260901044541 62 130 0.0 0.0 0.00 0.00 0.00 38 1016.6
20260901043030 62 131 0.0 0.0 0.00 0.00 0.00 37 1016.6
20260901041517 63 129 0.0 0.9 0.00 0.00 0.00 37 1016.7
20260901040004 64 128 0.0 0.9 0.00 0.00 0.00 36 1016.7
20260901034606 65 128 0.0 4.3 0.00 0.00 0.00 35 1016.7
20260901033108 66 149 0.0 2.6 0.00 0.00 0.00 34 1016.6
20260901031547 66 157 0.0 4.3 0.00 0.00 0.00 33 1016.6
20260901030027 67 155 0.0 0.0 0.00 0.00 0.00 33 1016.4